owner,sensor,date,latitude,longitude,vertical_datum,sea_water_temperature,qcFlag 
COMPS,ioos:station:USF.COMPS:ANC:1,2010-12-01T00:00:00Z,28.1930,-82.7890,-1.0,26.1,2 
COMPS,ioos:station:USF.COMPS:ANC:1,2010-12-01T00:06:00Z,28.1930,-82.7890,-1.0,26.07,2 
COMPS,ioos:station:USF.COMPS:ANC:1,2010-12-01T00:12:00Z,28.1930,-82.7890,-1.0,26.04,2 
COMPS,ioos:station:USF.COMPS:ANC:1,2010-12-01T00:18:00Z,28.1930,-82.7890,-1.0,26.04,2 
COMPS,ioos:station:USF.COMPS:ANC:1,2010-12-01T00:24:00Z,28.1930,-82.7890,-1.0,26.04,2 
COMPS,ioos:station:USF.COMPS:ANC:1,2010-12-01T00:30:00Z,28.1930,-82.7890,-1.0,26.04,2 
COMPS,ioos:station:USF.COMPS:ANC:1,2010-12-01T00:36:00Z,28.1930,-82.7890,-1.0,26.04,2 
COMPS,ioos:station:USF.COMPS:ANC:1,2010-12-01T00:42:00Z,28.1930,-82.7890,-1.0,26.01,2 
COMPS,ioos:station:USF.COMPS:ANC:1,2010-12-01T00:48:00Z,28.1930,-82.7890,-1.0,26.04,2 
COMPS,ioos:station:USF.COMPS:ANC:1,2010-12-01T00:54:00Z,28.1930,-82.7890,-1.0,26.02,2 
COMPS,ioos:station:USF.COMPS:ANC:1,2010-12-01T01:00:00Z,28.1930,-82.7890,-1.0,26.0,2 
COMPS,ioos:station:USF.COMPS:ANC:1,2010-12-01T01:06:00Z,28.1930,-82.7890,-1.0,25.99,2 
COMPS,ioos:station:USF.COMPS:ANC:1,2010-12-01T01:12:00Z,28.1930,-82.7890,-1.0,25.97,2 
COMPS,ioos:station:USF.COMPS:ANC:1,2010-12-01T01:18:00Z,28.1930,-82.7890,-1.0,25.97,2 
COMPS,ioos:station:USF.COMPS:ANC:1,2010-12-01T01:24:00Z,28.1930,-82.7890,-1.0,25.94,2 
COMPS,ioos:station:USF.COMPS:ANC:1,2010-12-01T01:30:00Z,28.1930,-82.7890,-1.0,25.95,2 
COMPS,ioos:station:USF.COMPS:ANC:1,2010-12-01T01:36:00Z,28.1930,-82.7890,-1.0,25.91,2 
COMPS,ioos:station:USF.COMPS:ANC:1,2010-12-01T01:42:00Z,28.1930,-82.7890,-1.0,25.92,2 
COMPS,ioos:station:USF.COMPS:ANC:1,2010-12-01T01:48:00Z,28.1930,-82.7890,-1.0,25.97,2 
COMPS,ioos:station:USF.COMPS:ANC:1,2010-12-01T01:54:00Z,28.1930,-82.7890,-1.0,26.02,2 
COMPS,ioos:station:USF.COMPS:ANC:1,2010-12-01T02:00:00Z,28.1930,-82.7890,-1.0,26.0,2 
COMPS,ioos:station:USF.COMPS:ANC:1,2010-12-01T02:06:00Z,28.1930,-82.7890,-1.0,26.13,2 
COMPS,ioos:station:USF.COMPS:ANC:1,2010-12-01T02:12:00Z,28.1930,-82.7890,-1.0,26.18,2 
COMPS,ioos:station:USF.COMPS:ANC:1,2010-12-01T02:18:00Z,28.1930,-82.7890,-1.0,26.21,2 
COMPS,ioos:station:USF.COMPS:ANC:1,2010-12-01T02:24:00Z,28.1930,-82.7890,-1.0,26.36,2 
COMPS,ioos:station:USF.COMPS:ANC:1,2010-12-01T02:30:00Z,28.1930,-82.7890,-1.0,26.53,2 
COMPS,ioos:station:USF.COMPS:ANC:1,2010-12-01T02:36:00Z,28.1930,-82.7890,-1.0,26.63,2 
COMPS,ioos:station:USF.COMPS:ANC:1,2010-12-01T02:42:00Z,28.1930,-82.7890,-1.0,26.71,2 
COMPS,ioos:station:USF.COMPS:ANC:1,2010-12-01T02:48:00Z,28.1930,-82.7890,-1.0,26.66,2 
COMPS,ioos:station:USF.COMPS:ANC:1,2010-12-01T02:54:00Z,28.1930,-82.7890,-1.0,26.63,2 
COMPS,ioos:station:USF.COMPS:ANC:1,2010-12-01T03:00:00Z,28.1930,-82.7890,-1.0,26.6,2 
COMPS,ioos:station:USF.COMPS:ANC:1,2010-12-01T03:06:00Z,28.1930,-82.7890,-1.0,26.47,2 
COMPS,ioos:station:USF.COMPS:ANC:1,2010-12-01T03:12:00Z,28.1930,-82.7890,-1.0,26.37,2 
COMPS,ioos:station:USF.COMPS:ANC:1,2010-12-01T03:18:00Z,28.1930,-82.7890,-1.0,26.3,2 
COMPS,ioos:station:USF.COMPS:ANC:1,2010-12-01T03:24:00Z,28.1930,-82.7890,-1.0,26.27,2 
COMPS,ioos:station:USF.COMPS:ANC:1,2010-12-01T03:30:00Z,28.1930,-82.7890,-1.0,26.2,2 
COMPS,ioos:station:USF.COMPS:ANC:1,2010-12-01T03:36:00Z,28.1930,-82.7890,-1.0,26.16,2 
COMPS,ioos:station:USF.COMPS:ANC:1,2010-12-01T03:42:00Z,28.1930,-82.7890,-1.0,26.1,2 
COMPS,ioos:station:USF.COMPS:ANC:1,2010-12-01T03:48:00Z,28.1930,-82.7890,-1.0,26.04,2 
COMPS,ioos:station:USF.COMPS:ANC:1,2010-12-01T03:54:00Z,28.1930,-82.7890,-1.0,25.97,2 
COMPS,ioos:station:USF.COMPS:ANC:1,2010-12-01T04:00:00Z,28.1930,-82.7890,-1.0,26.0,2 
COMPS,ioos:station:USF.COMPS:ANC:1,2010-12-01T04:06:00Z,28.1930,-82.7890,-1.0,25.84,2 
COMPS,ioos:station:USF.COMPS:ANC:1,2010-12-01T04:12:00Z,28.1930,-82.7890,-1.0,25.78,2 
COMPS,ioos:station:USF.COMPS:ANC:1,2010-12-01T04:18:00Z,28.1930,-82.7890,-1.0,25.71,2 
COMPS,ioos:station:USF.COMPS:ANC:1,2010-12-01T04:24:00Z,28.1930,-82.7890,-1.0,25.67,2 
COMPS,ioos:station:USF.COMPS:ANC:1,2010-12-01T04:30:00Z,28.1930,-82.7890,-1.0,25.59,2 
COMPS,ioos:station:USF.COMPS:ANC:1,2010-12-01T04:36:00Z,28.1930,-82.7890,-1.0,25.49,2 
COMPS,ioos:station:USF.COMPS:ANC:1,2010-12-01T04:42:00Z,28.1930,-82.7890,-1.0,25.46,2 
COMPS,ioos:station:USF.COMPS:ANC:1,2010-12-01T04:48:00Z,28.1930,-82.7890,-1.0,25.5,2 
COMPS,ioos:station:USF.COMPS:ANC:1,2010-12-01T04:54:00Z,28.1930,-82.7890,-1.0,25.43,2 
COMPS,ioos:station:USF.COMPS:ANC:1,2010-12-01T05:00:00Z,28.1930,-82.7890,-1.0,25.4,2 
COMPS,ioos:station:USF.COMPS:ANC:1,2010-12-01T05:06:00Z,28.1930,-82.7890,-1.0,25.24,2 
COMPS,ioos:station:USF.COMPS:ANC:1,2010-12-01T05:12:00Z,28.1930,-82.7890,-1.0,25.15,2 
COMPS,ioos:station:USF.COMPS:ANC:1,2010-12-01T05:18:00Z,28.1930,-82.7890,-1.0,25.08,2 
COMPS,ioos:station:USF.COMPS:ANC:1,2010-12-01T05:24:00Z,28.1930,-82.7890,-1.0,25.04,2 
COMPS,ioos:station:USF.COMPS:ANC:1,2010-12-01T05:30:00Z,28.1930,-82.7890,-1.0,25.06,2 
COMPS,ioos:station:USF.COMPS:ANC:1,2010-12-01T05:36:00Z,28.1930,-82.7890,-1.0,25.07,2 
COMPS,ioos:station:USF.COMPS:ANC:1,2010-12-01T05:42:00Z,28.1930,-82.7890,-1.0,25.03,2 
COMPS,ioos:station:USF.COMPS:ANC:1,2010-12-01T05:48:00Z,28.1930,-82.7890,-1.0,24.99,2 
COMPS,ioos:station:USF.COMPS:ANC:1,2010-12-01T05:54:00Z,28.1930,-82.7890,-1.0,24.96,2 
COMPS,ioos:station:USF.COMPS:ANC:1,2010-12-01T06:00:00Z,28.1930,-82.7890,-1.0,25.0,2 
COMPS,ioos:station:USF.COMPS:ANC:1,2010-12-01T06:06:00Z,28.1930,-82.7890,-1.0,24.94,2 
COMPS,ioos:station:USF.COMPS:ANC:1,2010-12-01T06:12:00Z,28.1930,-82.7890,-1.0,24.93,2 
COMPS,ioos:station:USF.COMPS:ANC:1,2010-12-01T06:18:00Z,28.1930,-82.7890,-1.0,24.95,2 
COMPS,ioos:station:USF.COMPS:ANC:1,2010-12-01T06:24:00Z,28.1930,-82.7890,-1.0,24.98,2 
COMPS,ioos:station:USF.COMPS:ANC:1,2010-12-01T06:30:00Z,28.1930,-82.7890,-1.0,24.97,2 
COMPS,ioos:station:USF.COMPS:ANC:1,2010-12-01T06:36:00Z,28.1930,-82.7890,-1.0,24.95,2 
COMPS,ioos:station:USF.COMPS:ANC:1,2010-12-01T06:42:00Z,28.1930,-82.7890,-1.0,24.94,2 
COMPS,ioos:station:USF.COMPS:ANC:1,2010-12-01T06:48:00Z,28.1930,-82.7890,-1.0,24.96,2 
COMPS,ioos:station:USF.COMPS:ANC:1,2010-12-01T06:54:00Z,28.1930,-82.7890,-1.0,24.96,2 
COMPS,ioos:station:USF.COMPS:ANC:1,2010-12-01T07:00:00Z,28.1930,-82.7890,-1.0,25.0,2 
COMPS,ioos:station:USF.COMPS:ANC:1,2010-12-01T07:06:00Z,28.1930,-82.7890,-1.0,24.99,2 
COMPS,ioos:station:USF.COMPS:ANC:1,2010-12-01T07:12:00Z,28.1930,-82.7890,-1.0,24.99,2 
COMPS,ioos:station:USF.COMPS:ANC:1,2010-12-01T07:18:00Z,28.1930,-82.7890,-1.0,24.98,2 
COMPS,ioos:station:USF.COMPS:ANC:1,2010-12-01T07:24:00Z,28.1930,-82.7890,-1.0,24.96,2 
COMPS,ioos:station:USF.COMPS:ANC:1,2010-12-01T07:30:00Z,28.1930,-82.7890,-1.0,24.84,2 
COMPS,ioos:station:USF.COMPS:ANC:1,2010-12-01T07:36:00Z,28.1930,-82.7890,-1.0,24.76,2 
COMPS,ioos:station:USF.COMPS:ANC:1,2010-12-01T07:42:00Z,28.1930,-82.7890,-1.0,24.67,2 
COMPS,ioos:station:USF.COMPS:ANC:1,2010-12-01T07:48:00Z,28.1930,-82.7890,-1.0,24.57,2 
COMPS,ioos:station:USF.COMPS:ANC:1,2010-12-01T07:54:00Z,28.1930,-82.7890,-1.0,24.5,2 
COMPS,ioos:station:USF.COMPS:ANC:1,2010-12-01T08:00:00Z,28.1930,-82.7890,-1.0,24.5,2 
COMPS,ioos:station:USF.COMPS:ANC:1,2010-12-01T08:06:00Z,28.1930,-82.7890,-1.0,24.34,2 
COMPS,ioos:station:USF.COMPS:ANC:1,2010-12-01T08:12:00Z,28.1930,-82.7890,-1.0,24.28,2 
COMPS,ioos:station:USF.COMPS:ANC:1,2010-12-01T08:18:00Z,28.1930,-82.7890,-1.0,24.19,2 
COMPS,ioos:station:USF.COMPS:ANC:1,2010-12-01T08:24:00Z,28.1930,-82.7890,-1.0,24.23,2 
COMPS,ioos:station:USF.COMPS:ANC:1,2010-12-01T08:30:00Z,28.1930,-82.7890,-1.0,24.26,2 
COMPS,ioos:station:USF.COMPS:ANC:1,2010-12-01T08:36:00Z,28.1930,-82.7890,-1.0,24.26,2 
COMPS,ioos:station:USF.COMPS:ANC:1,2010-12-01T08:42:00Z,28.1930,-82.7890,-1.0,24.22,2 
COMPS,ioos:station:USF.COMPS:ANC:1,2010-12-01T08:48:00Z,28.1930,-82.7890,-1.0,24.15,2 
COMPS,ioos:station:USF.COMPS:ANC:1,2010-12-01T08:54:00Z,28.1930,-82.7890,-1.0,24.09,2 
COMPS,ioos:station:USF.COMPS:ANC:1,2010-12-01T09:00:00Z,28.1930,-82.7890,-1.0,24.1,2 
COMPS,ioos:station:USF.COMPS:ANC:1,2010-12-01T09:06:00Z,28.1930,-82.7890,-1.0,23.78,2 
COMPS,ioos:station:USF.COMPS:ANC:1,2010-12-01T09:12:00Z,28.1930,-82.7890,-1.0,23.68,2 
COMPS,ioos:station:USF.COMPS:ANC:1,2010-12-01T09:18:00Z,28.1930,-82.7890,-1.0,23.61,2 
COMPS,ioos:station:USF.COMPS:ANC:1,2010-12-01T09:24:00Z,28.1930,-82.7890,-1.0,23.41,2 
COMPS,ioos:station:USF.COMPS:ANC:1,2010-12-01T09:30:00Z,28.1930,-82.7890,-1.0,23.22,2 
COMPS,ioos:station:USF.COMPS:ANC:1,2010-12-01T09:36:00Z,28.1930,-82.7890,-1.0,23.2,2 
COMPS,ioos:station:USF.COMPS:ANC:1,2010-12-01T09:42:00Z,28.1930,-82.7890,-1.0,23.07,2 
COMPS,ioos:station:USF.COMPS:ANC:1,2010-12-01T09:48:00Z,28.1930,-82.7890,-1.0,22.93,2 
COMPS,ioos:station:USF.COMPS:ANC:1,2010-12-01T09:54:00Z,28.1930,-82.7890,-1.0,22.82,2 
COMPS,ioos:station:USF.COMPS:ANC:1,2010-12-01T10:00:00Z,28.1930,-82.7890,-1.0,22.8,2 
COMPS,ioos:station:USF.COMPS:ANC:1,2010-12-01T10:06:00Z,28.1930,-82.7890,-1.0,22.43,2 
COMPS,ioos:station:USF.COMPS:ANC:1,2010-12-01T10:12:00Z,28.1930,-82.7890,-1.0,22.37,2 
COMPS,ioos:station:USF.COMPS:ANC:1,2010-12-01T10:18:00Z,28.1930,-82.7890,-1.0,22.32,2 
COMPS,ioos:station:USF.COMPS:ANC:1,2010-12-01T10:24:00Z,28.1930,-82.7890,-1.0,22.27,2 
COMPS,ioos:station:USF.COMPS:ANC:1,2010-12-01T10:30:00Z,28.1930,-82.7890,-1.0,22.14,2 
COMPS,ioos:station:USF.COMPS:ANC:1,2010-12-01T10:36:00Z,28.1930,-82.7890,-1.0,22.06,2 
COMPS,ioos:station:USF.COMPS:ANC:1,2010-12-01T10:42:00Z,28.1930,-82.7890,-1.0,22.09,2 
COMPS,ioos:station:USF.COMPS:ANC:1,2010-12-01T10:48:00Z,28.1930,-82.7890,-1.0,22.11,2 
COMPS,ioos:station:USF.COMPS:ANC:1,2010-12-01T10:54:00Z,28.1930,-82.7890,-1.0,22.15,2 
COMPS,ioos:station:USF.COMPS:ANC:1,2010-12-01T11:00:00Z,28.1930,-82.7890,-1.0,22.2,2 
COMPS,ioos:station:USF.COMPS:ANC:1,2010-12-01T11:06:00Z,28.1930,-82.7890,-1.0,22.17,2 
COMPS,ioos:station:USF.COMPS:ANC:1,2010-12-01T11:12:00Z,28.1930,-82.7890,-1.0,22.16,2 
COMPS,ioos:station:USF.COMPS:ANC:1,2010-12-01T11:18:00Z,28.1930,-82.7890,-1.0,22.14,2 
COMPS,ioos:station:USF.COMPS:ANC:1,2010-12-01T11:24:00Z,28.1930,-82.7890,-1.0,22.17,2 
COMPS,ioos:station:USF.COMPS:ANC:1,2010-12-01T11:30:00Z,28.1930,-82.7890,-1.0,22.12,2 
COMPS,ioos:station:USF.COMPS:ANC:1,2010-12-01T11:36:00Z,28.1930,-82.7890,-1.0,22.08,2 
COMPS,ioos:station:USF.COMPS:ANC:1,2010-12-01T11:42:00Z,28.1930,-82.7890,-1.0,22.09,2 
COMPS,ioos:station:USF.COMPS:ANC:1,2010-12-01T11:48:00Z,28.1930,-82.7890,-1.0,22.05,2 
COMPS,ioos:station:USF.COMPS:ANC:1,2010-12-01T11:54:00Z,28.1930,-82.7890,-1.0,22.02,2 
COMPS,ioos:station:USF.COMPS:ANC:1,2010-12-01T12:00:00Z,28.1930,-82.7890,-1.0,22.0,2 
COMPS,ioos:station:USF.COMPS:ANC:1,2010-12-01T14:00:00Z,28.1930,-82.7890,-1.0,21.2,2 
COMPS,ioos:station:USF.COMPS:ANC:1,2010-12-01T14:06:00Z,28.1930,-82.7890,-1.0,21.15,2 
COMPS,ioos:station:USF.COMPS:ANC:1,2010-12-01T14:12:00Z,28.1930,-82.7890,-1.0,21.18,2 
COMPS,ioos:station:USF.COMPS:ANC:1,2010-12-01T14:18:00Z,28.1930,-82.7890,-1.0,21.19,2 
COMPS,ioos:station:USF.COMPS:ANC:1,2010-12-01T14:24:00Z,28.1930,-82.7890,-1.0,21.27,2 
COMPS,ioos:station:USF.COMPS:ANC:1,2010-12-01T14:30:00Z,28.1930,-82.7890,-1.0,21.26,2 
COMPS,ioos:station:USF.COMPS:ANC:1,2010-12-01T14:36:00Z,28.1930,-82.7890,-1.0,21.23,2 
COMPS,ioos:station:USF.COMPS:ANC:1,2010-12-01T14:42:00Z,28.1930,-82.7890,-1.0,21.23,2 
COMPS,ioos:station:USF.COMPS:ANC:1,2010-12-01T14:48:00Z,28.1930,-82.7890,-1.0,21.2,2 
COMPS,ioos:station:USF.COMPS:ANC:1,2010-12-01T14:54:00Z,28.1930,-82.7890,-1.0,21.2,2 
COMPS,ioos:station:USF.COMPS:ANC:1,2010-12-01T15:00:00Z,28.1930,-82.7890,-1.0,21.2,2 
COMPS,ioos:station:USF.COMPS:ANC:1,2010-12-01T15:06:00Z,28.1930,-82.7890,-1.0,21.21,2 
COMPS,ioos:station:USF.COMPS:ANC:1,2010-12-01T15:12:00Z,28.1930,-82.7890,-1.0,21.21,2 
COMPS,ioos:station:USF.COMPS:ANC:1,2010-12-01T15:18:00Z,28.1930,-82.7890,-1.0,21.21,2 
COMPS,ioos:station:USF.COMPS:ANC:1,2010-12-01T15:24:00Z,28.1930,-82.7890,-1.0,21.21,2 
COMPS,ioos:station:USF.COMPS:ANC:1,2010-12-01T15:30:00Z,28.1930,-82.7890,-1.0,21.18,2 
COMPS,ioos:station:USF.COMPS:ANC:1,2010-12-01T15:36:00Z,28.1930,-82.7890,-1.0,21.18,2 
COMPS,ioos:station:USF.COMPS:ANC:1,2010-12-01T15:42:00Z,28.1930,-82.7890,-1.0,21.19,2 
COMPS,ioos:station:USF.COMPS:ANC:1,2010-12-01T15:48:00Z,28.1930,-82.7890,-1.0,21.17,2 
COMPS,ioos:station:USF.COMPS:ANC:1,2010-12-01T15:54:00Z,28.1930,-82.7890,-1.0,21.11,2 
COMPS,ioos:station:USF.COMPS:ANC:1,2010-12-01T16:00:00Z,28.1930,-82.7890,-1.0,21.1,2 
COMPS,ioos:station:USF.COMPS:ANC:1,2010-12-01T16:06:00Z,28.1930,-82.7890,-1.0,21.0,2 
COMPS,ioos:station:USF.COMPS:ANC:1,2010-12-01T16:12:00Z,28.1930,-82.7890,-1.0,20.92,2 
COMPS,ioos:station:USF.COMPS:ANC:1,2010-12-01T16:18:00Z,28.1930,-82.7890,-1.0,20.85,2 
COMPS,ioos:station:USF.COMPS:ANC:1,2010-12-01T16:24:00Z,28.1930,-82.7890,-1.0,20.79,2 
COMPS,ioos:station:USF.COMPS:ANC:1,2010-12-01T16:30:00Z,28.1930,-82.7890,-1.0,20.72,2 
COMPS,ioos:station:USF.COMPS:ANC:1,2010-12-01T16:36:00Z,28.1930,-82.7890,-1.0,20.64,2 
COMPS,ioos:station:USF.COMPS:ANC:1,2010-12-01T16:42:00Z,28.1930,-82.7890,-1.0,20.58,2 
COMPS,ioos:station:USF.COMPS:ANC:1,2010-12-01T16:48:00Z,28.1930,-82.7890,-1.0,20.52,2 
COMPS,ioos:station:USF.COMPS:ANC:1,2010-12-01T16:54:00Z,28.1930,-82.7890,-1.0,20.41,2 
COMPS,ioos:station:USF.COMPS:ANC:1,2010-12-01T17:00:00Z,28.1930,-82.7890,-1.0,20.4,2 
COMPS,ioos:station:USF.COMPS:ANC:1,2010-12-01T17:06:00Z,28.1930,-82.7890,-1.0,20.31,2 
COMPS,ioos:station:USF.COMPS:ANC:1,2010-12-01T17:12:00Z,28.1930,-82.7890,-1.0,20.28,2 
COMPS,ioos:station:USF.COMPS:ANC:1,2010-12-01T17:18:00Z,28.1930,-82.7890,-1.0,20.26,2 
COMPS,ioos:station:USF.COMPS:ANC:1,2010-12-01T17:24:00Z,28.1930,-82.7890,-1.0,20.24,2 
COMPS,ioos:station:USF.COMPS:ANC:1,2010-12-01T17:30:00Z,28.1930,-82.7890,-1.0,20.21,2 
COMPS,ioos:station:USF.COMPS:ANC:1,2010-12-01T17:36:00Z,28.1930,-82.7890,-1.0,20.19,2 
COMPS,ioos:station:USF.COMPS:ANC:1,2010-12-01T17:42:00Z,28.1930,-82.7890,-1.0,20.18,2 
COMPS,ioos:station:USF.COMPS:ANC:1,2010-12-01T17:48:00Z,28.1930,-82.7890,-1.0,20.2,2 
COMPS,ioos:station:USF.COMPS:ANC:1,2010-12-01T17:54:00Z,28.1930,-82.7890,-1.0,20.2,2 
COMPS,ioos:station:USF.COMPS:ANC:1,2010-12-01T18:00:00Z,28.1930,-82.7890,-1.0,20.2,2 
COMPS,ioos:station:USF.COMPS:ANC:1,2010-12-01T18:06:00Z,28.1930,-82.7890,-1.0,20.25,2 
COMPS,ioos:station:USF.COMPS:ANC:1,2010-12-01T18:12:00Z,28.1930,-82.7890,-1.0,20.29,2 
COMPS,ioos:station:USF.COMPS:ANC:1,2010-12-01T18:18:00Z,28.1930,-82.7890,-1.0,20.3,2 
COMPS,ioos:station:USF.COMPS:ANC:1,2010-12-01T18:24:00Z,28.1930,-82.7890,-1.0,20.32,2 
COMPS,ioos:station:USF.COMPS:ANC:1,2010-12-01T18:30:00Z,28.1930,-82.7890,-1.0,20.33,2 
COMPS,ioos:station:USF.COMPS:ANC:1,2010-12-01T18:36:00Z,28.1930,-82.7890,-1.0,20.33,2 
COMPS,ioos:station:USF.COMPS:ANC:1,2010-12-01T18:42:00Z,28.1930,-82.7890,-1.0,20.34,2 
COMPS,ioos:station:USF.COMPS:ANC:1,2010-12-01T18:48:00Z,28.1930,-82.7890,-1.0,20.36,2 
COMPS,ioos:station:USF.COMPS:ANC:1,2010-12-01T18:54:00Z,28.1930,-82.7890,-1.0,20.37,2 
COMPS,ioos:station:USF.COMPS:ANC:1,2010-12-01T19:00:00Z,28.1930,-82.7890,-1.0,20.4,2 
COMPS,ioos:station:USF.COMPS:ANC:1,2010-12-01T19:06:00Z,28.1930,-82.7890,-1.0,20.32,2 
COMPS,ioos:station:USF.COMPS:ANC:1,2010-12-01T19:12:00Z,28.1930,-82.7890,-1.0,20.31,2 
COMPS,ioos:station:USF.COMPS:ANC:1,2010-12-01T19:18:00Z,28.1930,-82.7890,-1.0,20.28,2 
COMPS,ioos:station:USF.COMPS:ANC:1,2010-12-01T19:24:00Z,28.1930,-82.7890,-1.0,20.29,2 
COMPS,ioos:station:USF.COMPS:ANC:1,2010-12-01T19:30:00Z,28.1930,-82.7890,-1.0,20.19,2 
COMPS,ioos:station:USF.COMPS:ANC:1,2010-12-01T19:36:00Z,28.1930,-82.7890,-1.0,20.1,2 
COMPS,ioos:station:USF.COMPS:ANC:1,2010-12-01T19:42:00Z,28.1930,-82.7890,-1.0,20.09,2 
COMPS,ioos:station:USF.COMPS:ANC:1,2010-12-01T19:48:00Z,28.1930,-82.7890,-1.0,20.04,2 
COMPS,ioos:station:USF.COMPS:ANC:1,2010-12-01T19:54:00Z,28.1930,-82.7890,-1.0,20.06,2 
COMPS,ioos:station:USF.COMPS:ANC:1,2010-12-01T20:00:00Z,28.1930,-82.7890,-1.0,20.1,2 
COMPS,ioos:station:USF.COMPS:ANC:1,2010-12-01T20:06:00Z,28.1930,-82.7890,-1.0,19.99,2 
COMPS,ioos:station:USF.COMPS:ANC:1,2010-12-01T20:12:00Z,28.1930,-82.7890,-1.0,19.97,2 
COMPS,ioos:station:USF.COMPS:ANC:1,2010-12-01T20:18:00Z,28.1930,-82.7890,-1.0,19.92,2 
COMPS,ioos:station:USF.COMPS:ANC:1,2010-12-01T20:24:00Z,28.1930,-82.7890,-1.0,19.97,2 
COMPS,ioos:station:USF.COMPS:ANC:1,2010-12-01T20:30:00Z,28.1930,-82.7890,-1.0,20.22,2 
COMPS,ioos:station:USF.COMPS:ANC:1,2010-12-01T20:36:00Z,28.1930,-82.7890,-1.0,20.39,2 
COMPS,ioos:station:USF.COMPS:ANC:1,2010-12-01T20:42:00Z,28.1930,-82.7890,-1.0,20.7,2 
COMPS,ioos:station:USF.COMPS:ANC:1,2010-12-01T20:48:00Z,28.1930,-82.7890,-1.0,20.86,2 
COMPS,ioos:station:USF.COMPS:ANC:1,2010-12-01T20:54:00Z,28.1930,-82.7890,-1.0,21.01,2 
COMPS,ioos:station:USF.COMPS:ANC:1,2010-12-01T21:00:00Z,28.1930,-82.7890,-1.0,21.0,2 
COMPS,ioos:station:USF.COMPS:ANC:1,2010-12-01T21:06:00Z,28.1930,-82.7890,-1.0,21.29,2 
COMPS,ioos:station:USF.COMPS:ANC:1,2010-12-01T21:12:00Z,28.1930,-82.7890,-1.0,21.36,2 
COMPS,ioos:station:USF.COMPS:ANC:1,2010-12-01T21:18:00Z,28.1930,-82.7890,-1.0,21.42,2 
COMPS,ioos:station:USF.COMPS:ANC:1,2010-12-01T21:24:00Z,28.1930,-82.7890,-1.0,21.41,2 
COMPS,ioos:station:USF.COMPS:ANC:1,2010-12-01T21:30:00Z,28.1930,-82.7890,-1.0,20.57,2 
COMPS,ioos:station:USF.COMPS:ANC:1,2010-12-01T21:36:00Z,28.1930,-82.7890,-1.0,19.31,2 
COMPS,ioos:station:USF.COMPS:ANC:1,2010-12-01T21:42:00Z,28.1930,-82.7890,-1.0,18.91,2 
COMPS,ioos:station:USF.COMPS:ANC:1,2010-12-01T21:48:00Z,28.1930,-82.7890,-1.0,18.9,2 
COMPS,ioos:station:USF.COMPS:ANC:1,2010-12-01T21:54:00Z,28.1930,-82.7890,-1.0,18.96,2 
COMPS,ioos:station:USF.COMPS:ANC:1,2010-12-01T22:00:00Z,28.1930,-82.7890,-1.0,19.0,2 
COMPS,ioos:station:USF.COMPS:ANC:1,2010-12-01T22:06:00Z,28.1930,-82.7890,-1.0,18.82,2 
COMPS,ioos:station:USF.COMPS:ANC:1,2010-12-01T22:12:00Z,28.1930,-82.7890,-1.0,18.85,2 
COMPS,ioos:station:USF.COMPS:ANC:1,2010-12-01T22:18:00Z,28.1930,-82.7890,-1.0,18.94,2 
COMPS,ioos:station:USF.COMPS:ANC:1,2010-12-01T22:24:00Z,28.1930,-82.7890,-1.0,19.06,2 
COMPS,ioos:station:USF.COMPS:ANC:1,2010-12-01T22:30:00Z,28.1930,-82.7890,-1.0,19.1,2 
COMPS,ioos:station:USF.COMPS:ANC:1,2010-12-01T22:36:00Z,28.1930,-82.7890,-1.0,19.08,2 
COMPS,ioos:station:USF.COMPS:ANC:1,2010-12-01T22:42:00Z,28.1930,-82.7890,-1.0,19.05,2 
COMPS,ioos:station:USF.COMPS:ANC:1,2010-12-01T22:48:00Z,28.1930,-82.7890,-1.0,19.04,2 
COMPS,ioos:station:USF.COMPS:ANC:1,2010-12-01T22:54:00Z,28.1930,-82.7890,-1.0,18.98,2 
COMPS,ioos:station:USF.COMPS:ANC:1,2010-12-01T23:00:00Z,28.1930,-82.7890,-1.0,19.0,2 
COMPS,ioos:station:USF.COMPS:ANC:1,2010-12-01T23:06:00Z,28.1930,-82.7890,-1.0,18.67,2 
COMPS,ioos:station:USF.COMPS:ANC:1,2010-12-01T23:12:00Z,28.1930,-82.7890,-1.0,18.54,2 
COMPS,ioos:station:USF.COMPS:ANC:1,2010-12-01T23:18:00Z,28.1930,-82.7890,-1.0,18.42,2 
COMPS,ioos:station:USF.COMPS:ANC:1,2010-12-01T23:24:00Z,28.1930,-82.7890,-1.0,18.4,2 
COMPS,ioos:station:USF.COMPS:ANC:1,2010-12-01T23:30:00Z,28.1930,-82.7890,-1.0,18.34,2 
COMPS,ioos:station:USF.COMPS:ANC:1,2010-12-01T23:36:00Z,28.1930,-82.7890,-1.0,18.26,2 
COMPS,ioos:station:USF.COMPS:ANC:1,2010-12-01T23:42:00Z,28.1930,-82.7890,-1.0,18.24,2 
COMPS,ioos:station:USF.COMPS:ANC:1,2010-12-01T23:48:00Z,28.1930,-82.7890,-1.0,18.22,2 
COMPS,ioos:station:USF.COMPS:ANC:1,2010-12-01T23:54:00Z,28.1930,-82.7890,-1.0,18.18,2 
COMPS,ioos:station:USF.COMPS:ANC:1,2010-12-02T00:00:00Z,28.1930,-82.7890,-1.0,18.2,2 
COMPS,ioos:station:USF.COMPS:ANC:1,2010-12-02T00:06:00Z,28.1930,-82.7890,-1.0,18.07,2 
COMPS,ioos:station:USF.COMPS:ANC:1,2010-12-02T00:12:00Z,28.1930,-82.7890,-1.0,18.03,2 
COMPS,ioos:station:USF.COMPS:ANC:1,2010-12-02T00:18:00Z,28.1930,-82.7890,-1.0,17.99,2 
COMPS,ioos:station:USF.COMPS:ANC:1,2010-12-02T00:24:00Z,28.1930,-82.7890,-1.0,17.91,2 
COMPS,ioos:station:USF.COMPS:ANC:1,2010-12-02T00:30:00Z,28.1930,-82.7890,-1.0,17.86,2 
COMPS,ioos:station:USF.COMPS:ANC:1,2010-12-02T00:36:00Z,28.1930,-82.7890,-1.0,17.81,2 
COMPS,ioos:station:USF.COMPS:ANC:1,2010-12-02T00:42:00Z,28.1930,-82.7890,-1.0,17.75,2 
COMPS,ioos:station:USF.COMPS:ANC:1,2010-12-02T00:48:00Z,28.1930,-82.7890,-1.0,17.7,2 
COMPS,ioos:station:USF.COMPS:ANC:1,2010-12-02T00:54:00Z,28.1930,-82.7890,-1.0,17.65,2 
COMPS,ioos:station:USF.COMPS:ANC:1,2010-12-02T01:00:00Z,28.1930,-82.7890,-1.0,17.7,2 
COMPS,ioos:station:USF.COMPS:ANC:1,2010-12-02T01:06:00Z,28.1930,-82.7890,-1.0,17.47,2 
COMPS,ioos:station:USF.COMPS:ANC:1,2010-12-02T01:12:00Z,28.1930,-82.7890,-1.0,17.4,2 
COMPS,ioos:station:USF.COMPS:ANC:1,2010-12-02T01:18:00Z,28.1930,-82.7890,-1.0,17.36,2 
COMPS,ioos:station:USF.COMPS:ANC:1,2010-12-02T01:24:00Z,28.1930,-82.7890,-1.0,17.31,2 
COMPS,ioos:station:USF.COMPS:ANC:1,2010-12-02T01:30:00Z,28.1930,-82.7890,-1.0,17.26,2 
COMPS,ioos:station:USF.COMPS:ANC:1,2010-12-02T01:36:00Z,28.1930,-82.7890,-1.0,17.2,2 
COMPS,ioos:station:USF.COMPS:ANC:1,2010-12-02T01:42:00Z,28.1930,-82.7890,-1.0,17.15,2 
COMPS,ioos:station:USF.COMPS:ANC:1,2010-12-02T01:48:00Z,28.1930,-82.7890,-1.0,17.11,2 
COMPS,ioos:station:USF.COMPS:ANC:1,2010-12-02T01:54:00Z,28.1930,-82.7890,-1.0,17.09,2 
COMPS,ioos:station:USF.COMPS:ANC:1,2010-12-02T02:00:00Z,28.1930,-82.7890,-1.0,17.1,2 
COMPS,ioos:station:USF.COMPS:ANC:1,2010-12-02T02:06:00Z,28.1930,-82.7890,-1.0,17.03,2 
COMPS,ioos:station:USF.COMPS:ANC:1,2010-12-02T02:12:00Z,28.1930,-82.7890,-1.0,17.04,2 
COMPS,ioos:station:USF.COMPS:ANC:1,2010-12-02T02:18:00Z,28.1930,-82.7890,-1.0,17.06,2 
COMPS,ioos:station:USF.COMPS:ANC:1,2010-12-02T02:24:00Z,28.1930,-82.7890,-1.0,17.04,2 
COMPS,ioos:station:USF.COMPS:ANC:1,2010-12-02T02:30:00Z,28.1930,-82.7890,-1.0,17.01,2 
COMPS,ioos:station:USF.COMPS:ANC:1,2010-12-02T02:36:00Z,28.1930,-82.7890,-1.0,16.95,2 
COMPS,ioos:station:USF.COMPS:ANC:1,2010-12-02T02:42:00Z,28.1930,-82.7890,-1.0,16.92,2 
COMPS,ioos:station:USF.COMPS:ANC:1,2010-12-02T02:48:00Z,28.1930,-82.7890,-1.0,17.01,2 
COMPS,ioos:station:USF.COMPS:ANC:1,2010-12-02T02:54:00Z,28.1930,-82.7890,-1.0,17.4,2 
COMPS,ioos:station:USF.COMPS:ANC:1,2010-12-02T03:00:00Z,28.1930,-82.7890,-1.0,17.4,2 
COMPS,ioos:station:USF.COMPS:ANC:1,2010-12-02T03:06:00Z,28.1930,-82.7890,-1.0,18.56,2 
COMPS,ioos:station:USF.COMPS:ANC:1,2010-12-02T03:12:00Z,28.1930,-82.7890,-1.0,19.25,2 
COMPS,ioos:station:USF.COMPS:ANC:1,2010-12-02T03:18:00Z,28.1930,-82.7890,-1.0,19.99,2 
COMPS,ioos:station:USF.COMPS:ANC:1,2010-12-02T03:24:00Z,28.1930,-82.7890,-1.0,20.49,2 
COMPS,ioos:station:USF.COMPS:ANC:1,2010-12-02T03:30:00Z,28.1930,-82.7890,-1.0,20.74,2 
COMPS,ioos:station:USF.COMPS:ANC:1,2010-12-02T03:36:00Z,28.1930,-82.7890,-1.0,20.93,2 
COMPS,ioos:station:USF.COMPS:ANC:1,2010-12-02T03:42:00Z,28.1930,-82.7890,-1.0,21.1,2 
COMPS,ioos:station:USF.COMPS:ANC:1,2010-12-02T03:48:00Z,28.1930,-82.7890,-1.0,21.29,2 
COMPS,ioos:station:USF.COMPS:ANC:1,2010-12-02T03:54:00Z,28.1930,-82.7890,-1.0,21.44,2 
COMPS,ioos:station:USF.COMPS:ANC:1,2010-12-02T04:00:00Z,28.1930,-82.7890,-1.0,21.4,2 
COMPS,ioos:station:USF.COMPS:ANC:1,2010-12-02T04:06:00Z,28.1930,-82.7890,-1.0,21.42,2 
COMPS,ioos:station:USF.COMPS:ANC:1,2010-12-02T04:12:00Z,28.1930,-82.7890,-1.0,21.32,2 
COMPS,ioos:station:USF.COMPS:ANC:1,2010-12-02T04:18:00Z,28.1930,-82.7890,-1.0,21.44,2 
COMPS,ioos:station:USF.COMPS:ANC:1,2010-12-02T04:24:00Z,28.1930,-82.7890,-1.0,21.44,2 
COMPS,ioos:station:USF.COMPS:ANC:1,2010-12-02T04:30:00Z,28.1930,-82.7890,-1.0,21.44,2 
COMPS,ioos:station:USF.COMPS:ANC:1,2010-12-02T04:36:00Z,28.1930,-82.7890,-1.0,21.4,2 
COMPS,ioos:station:USF.COMPS:ANC:1,2010-12-02T04:42:00Z,28.1930,-82.7890,-1.0,21.34,2 
COMPS,ioos:station:USF.COMPS:ANC:1,2010-12-02T04:48:00Z,28.1930,-82.7890,-1.0,21.27,2 
COMPS,ioos:station:USF.COMPS:ANC:1,2010-12-02T04:54:00Z,28.1930,-82.7890,-1.0,21.2,2 
COMPS,ioos:station:USF.COMPS:ANC:1,2010-12-02T05:00:00Z,28.1930,-82.7890,-1.0,21.2,2 
COMPS,ioos:station:USF.COMPS:ANC:1,2010-12-02T05:06:00Z,28.1930,-82.7890,-1.0,20.99,2 
COMPS,ioos:station:USF.COMPS:ANC:1,2010-12-02T05:12:00Z,28.1930,-82.7890,-1.0,20.85,2 
COMPS,ioos:station:USF.COMPS:ANC:1,2010-12-02T05:18:00Z,28.1930,-82.7890,-1.0,20.69,2 